Keokuk, IA

6:34 AM CDT on May 27, 2017 (GMT -0500)
Keokuk Municipal

Weather History for KEOK - February, 2014

Change the Weather History Date:

Sunday, February 23, 2014

  Actual Average Record
Temperature  
Mean Temperature 26 °F -  
Max Temperature 30 °F 42 °F 65 °F (1933)
Min Temperature 19 °F 26 °F -2 °F (1989)
Degree Days  
Heating Degree Days 40    
Moisture  
Dew Point 12 °F    
Average Humidity 61    
Maximum Humidity 74    
Minimum Humidity 47    
Precipitation  
Precipitation 0.00 in - - ()
Sea Level Pressure  
Sea Level Pressure 30.27 in    
Wind  
Wind Speed 10 mph (NNW)    
Max Wind Speed 15 mph    
Max Gust Speed 21 mph    
Visibility 10 miles    
Events      
Averages and records for this station are not official NWS values.
T = Trace of Precipitation, MM = Missing Value Source: NWS Daily Summary

Daily Weather History Graph

Daily Weather History Graph

Search for Another Location

Airport or City:

Trip Planner

Search our weather history database for the weather conditions in past years. The results will help you decide how hot, cold, wet, or windy it might be!

Date:

Astronomy

Feb. 23, 2014 Rise Set
Actual Time 6:48 AM CST 5:50 PM CST
Civil Twilight 6:20 AM CST 6:18 PM CST
Nautical Twilight 5:49 AM CST 6:49 PM CST
Astronomical Twilight 5:17 AM CST 7:21 PM CST
Moon 1:47 AM CST (2/23) 11:52 AM CST (2/23)
Length of Visible Light 11h 57m
Length of Day
11h 02m
Last Quarter, 38% of the Moon is Illuminated
Feb 23
Last Quarter
Mar 1
New
Mar 8
First Quarter
Mar 16
Full
Mar 23
Last Quarter

Hourly Weather History & Observations

Time (CST) Temp. Windchill Dew Point Humidity Pressure Visibility Wind Dir Wind Speed Gust Speed Precip Events Conditions
12:15 AM 23.0 °F 11.7 °F 12.2 °F 63% 30.14 in 10.0 mi North 11.5 mph 20.7 mph N/A   Clear
12:35 AM 21.2 °F 8.3 °F 12.2 °F 68% 30.15 in 10.0 mi North 13.8 mph - N/A   Clear
12:55 AM 21.2 °F 10.9 °F 12.2 °F 68% 30.14 in 10.0 mi North 9.2 mph 15.0 mph N/A   Clear
1:15 AM 21.2 °F 8.9 °F 12.2 °F 68% 30.17 in 10.0 mi North 12.7 mph - N/A   Clear
1:35 AM 21.2 °F 9.5 °F 12.2 °F 68% 30.19 in 10.0 mi North 11.5 mph - N/A   Mostly Cloudy
1:55 AM 21.2 °F 8.9 °F 12.2 °F 68% 30.20 in 10.0 mi North 12.7 mph - N/A   Overcast
2:15 AM 21.2 °F 10.9 °F 12.2 °F 68% 30.19 in 10.0 mi North 9.2 mph 17.3 mph N/A   Overcast
2:35 AM 21.2 °F 12.6 °F 12.2 °F 68% 30.19 in 10.0 mi North 6.9 mph - N/A   Overcast
2:55 AM 21.2 °F 12.6 °F 12.2 °F 68% 30.19 in 10.0 mi North 6.9 mph - N/A   Overcast
3:15 AM 23.0 °F 14.7 °F 14.0 °F 68% 30.19 in 10.0 mi North 6.9 mph - N/A   Overcast
3:35 AM 23.0 °F 12.4 °F 12.2 °F 63% 30.18 in 10.0 mi North 10.4 mph - N/A   Overcast
3:50 AM 21.2 °F 10.9 °F 12.2 °F 68% 30.17 in 10.0 mi NNE 9.2 mph - N/A   Overcast
4:15 AM 23.0 °F 12.4 °F 14.0 °F 68% 30.20 in 10.0 mi North 10.4 mph - N/A   Overcast
4:35 AM 23.0 °F 13.1 °F 14.0 °F 68% 30.21 in 10.0 mi North 9.2 mph - N/A   Overcast
4:55 AM 23.0 °F 13.1 °F 14.0 °F 68% 30.22 in 10.0 mi North 9.2 mph - N/A   Overcast
5:15 AM 23.0 °F 11.7 °F 12.2 °F 63% 30.24 in 10.0 mi North 11.5 mph 17.3 mph N/A   Overcast
5:35 AM 23.0 °F 12.4 °F 12.2 °F 63% 30.24 in 10.0 mi North 10.4 mph 17.3 mph N/A   Overcast
5:55 AM 21.2 °F 11.7 °F 12.2 °F 68% 30.24 in 10.0 mi North 8.1 mph - N/A   Mostly Cloudy
6:15 AM 21.2 °F 13.6 °F 12.2 °F 68% 30.24 in 10.0 mi NNE 5.8 mph - N/A   Mostly Cloudy
6:35 AM 21.2 °F 11.7 °F 12.2 °F 68% 30.25 in 10.0 mi North 8.1 mph - N/A   Scattered Clouds
6:55 AM 21.2 °F 10.9 °F 10.4 °F 63% 30.24 in 10.0 mi NNE 9.2 mph - N/A   Scattered Clouds
7:15 AM 21.2 °F 12.6 °F 10.4 °F 63% 30.24 in 10.0 mi NNE 6.9 mph - N/A   Partly Cloudy
7:35 AM 21.2 °F 10.9 °F 10.4 °F 63% 30.25 in 10.0 mi North 9.2 mph - N/A   Clear
7:55 AM 21.2 °F 9.5 °F 10.4 °F 63% 30.25 in 10.0 mi North 11.5 mph - N/A   Clear
8:15 AM 21.2 °F 11.7 °F 10.4 °F 63% 30.26 in 10.0 mi North 8.1 mph 15.0 mph N/A   Clear
8:30 AM 21.2 °F 10.1 °F 10.4 °F 63% 30.27 in 10.0 mi North 10.4 mph - N/A   Clear
8:55 AM 21.2 °F 11.7 °F 10.4 °F 63% 30.28 in 10.0 mi North 8.1 mph 16.1 mph N/A   Clear
9:15 AM 21.2 °F 10.1 °F 10.4 °F 63% 30.29 in 10.0 mi NNW 10.4 mph - N/A   Clear
9:35 AM 21.2 °F 8.9 °F 10.4 °F 63% 30.29 in 10.0 mi North 12.7 mph - N/A   Clear
9:55 AM 21.2 °F 9.5 °F 10.4 °F 63% 30.29 in 10.0 mi North 11.5 mph - N/A   Clear
10:15 AM 23.0 °F 13.1 °F 10.4 °F 59% 30.30 in 10.0 mi North 9.2 mph - N/A   Clear
10:35 AM 24.8 °F 15.3 °F 8.6 °F 50% 30.30 in 10.0 mi North 9.2 mph - N/A   Clear
10:55 AM 24.8 °F 15.3 °F 10.4 °F 54% 30.31 in 10.0 mi North 9.2 mph - N/A   Clear
11:15 AM 24.8 °F 17.9 °F 10.4 °F 54% 30.30 in 10.0 mi NNW 5.8 mph - N/A   Clear
11:35 AM 26.6 °F 16.8 °F 12.2 °F 55% 30.30 in 10.0 mi North 10.4 mph - N/A   Clear
11:55 AM 26.6 °F 18.2 °F 10.4 °F 51% 30.31 in 10.0 mi North 8.1 mph - N/A   Clear
12:15 PM 26.6 °F 17.5 °F 12.2 °F 55% 30.30 in 10.0 mi NW 9.2 mph - N/A   Partly Cloudy
12:35 PM 26.6 °F 19.1 °F 12.2 °F 55% 30.30 in 10.0 mi North 6.9 mph 13.8 mph N/A   Partly Cloudy
12:55 PM 26.6 °F 17.5 °F 12.2 °F 55% 30.29 in 10.0 mi NW 9.2 mph - N/A   Mostly Cloudy
1:15 PM 28.4 °F 17.0 °F 12.2 °F 51% 30.30 in 10.0 mi NW 15.0 mph - N/A   Scattered Clouds
1:35 PM 28.4 °F 18.0 °F 14.0 °F 55% 30.30 in 10.0 mi NNW 12.7 mph - N/A   Clear
1:55 PM 28.4 °F 18.0 °F 14.0 °F 55% 30.29 in 10.0 mi NNW 12.7 mph - N/A   Clear
2:15 PM 30.2 °F 21.3 °F 14.0 °F 51% 30.29 in 10.0 mi NW 10.4 mph - N/A   Clear
2:35 PM 30.2 °F 19.8 °F 12.2 °F 47% 30.29 in 10.0 mi NW 13.8 mph - N/A   Clear
2:55 PM 30.2 °F 20.2 °F 12.2 °F 47% 30.29 in 10.0 mi NNW 12.7 mph - N/A   Clear
3:15 PM 28.4 °F 19.7 °F 14.0 °F 55% 30.30 in 10.0 mi North 9.2 mph 17.3 mph N/A   Clear
3:35 PM 30.2 °F 20.2 °F 14.0 °F 51% 30.29 in 10.0 mi NNW 12.7 mph - N/A   Partly Cloudy
3:55 PM 28.4 °F 19.1 °F 14.0 °F 55% 30.29 in 10.0 mi NNW 10.4 mph - N/A   Partly Cloudy
4:15 PM 28.4 °F 18.5 °F 12.2 °F 51% 30.29 in 10.0 mi NW 11.5 mph - N/A   Partly Cloudy
4:35 PM 28.4 °F 19.1 °F 14.0 °F 55% 30.30 in 10.0 mi NNW 10.4 mph - N/A   Scattered Clouds
4:55 PM 28.4 °F 19.1 °F 12.2 °F 51% 30.30 in 10.0 mi NNW 10.4 mph - N/A   Scattered Clouds
5:15 PM 28.4 °F 19.7 °F 12.2 °F 51% 30.30 in 10.0 mi NNW 9.2 mph - N/A   Scattered Clouds
5:35 PM 26.6 °F 20.0 °F 14.0 °F 59% 30.31 in 10.0 mi NW 5.8 mph 12.7 mph N/A   Scattered Clouds
5:55 PM 26.6 °F 17.5 °F 12.2 °F 55% 30.31 in 10.0 mi NNW 9.2 mph - N/A   Mostly Cloudy
6:15 PM 26.6 °F 19.1 °F 12.2 °F 55% 30.31 in 10.0 mi NW 6.9 mph - N/A   Overcast
6:35 PM 26.6 °F 19.1 °F 12.2 °F 55% 30.32 in 10.0 mi NW 6.9 mph - N/A   Overcast
6:55 PM 24.8 °F 16.9 °F 12.2 °F 59% 30.33 in 10.0 mi NW 6.9 mph - N/A   Mostly Cloudy
7:15 PM 24.8 °F 16.9 °F 12.2 °F 59% 30.33 in 10.0 mi NW 6.9 mph - N/A   Scattered Clouds
7:35 PM 24.8 °F 17.9 °F 12.2 °F 59% 30.32 in 10.0 mi NW 5.8 mph - N/A   Partly Cloudy
7:55 PM 23.0 °F 15.8 °F 12.2 °F 63% 30.32 in 10.0 mi NW 5.8 mph - N/A   Scattered Clouds
8:15 PM 23.0 °F 15.8 °F 12.2 °F 63% 30.32 in 10.0 mi NW 5.8 mph - N/A   Mostly Cloudy
8:35 PM 23.0 °F 15.8 °F 12.2 °F 63% 30.33 in 10.0 mi NW 5.8 mph - N/A   Scattered Clouds
8:55 PM 23.0 °F 17.0 °F 12.2 °F 63% 30.33 in 10.0 mi WNW 4.6 mph - N/A   Partly Cloudy
9:15 PM 23.0 °F 15.8 °F 12.2 °F 63% 30.34 in 10.0 mi WNW 5.8 mph - N/A   Partly Cloudy
9:35 PM 21.2 °F 12.6 °F 12.2 °F 68% 30.34 in 10.0 mi NW 6.9 mph - N/A   Partly Cloudy
9:55 PM 21.2 °F 13.6 °F 12.2 °F 68% 30.34 in 10.0 mi NW 5.8 mph - N/A   Scattered Clouds
10:15 PM 21.2 °F 13.6 °F 12.2 °F 68% 30.34 in 10.0 mi NNW 5.8 mph - N/A   Mostly Cloudy
10:35 PM 21.2 °F 14.9 °F 12.2 °F 68% 30.34 in 10.0 mi NW 4.6 mph - N/A   Overcast
10:55 PM 21.2 °F 16.4 °F 12.2 °F 68% 30.34 in 10.0 mi NW 3.5 mph - N/A   Mostly Cloudy
11:15 PM 21.2 °F - 12.2 °F 68% 30.33 in 10.0 mi Calm Calm - N/A   Partly Cloudy
11:35 PM 21.2 °F 16.4 °F 12.2 °F 68% 30.33 in 10.0 mi West 3.5 mph - N/A   Clear
11:55 PM 19.4 °F 12.8 °F 12.2 °F 74% 30.33 in 10.0 mi WSW 4.6 mph - N/A   Clear